DW5868 Weather Reports


Display with metric or nautical units.
time (UTC)temp
F
wind
direction
speed
MPH
gust
MPH
rain 1hr
in
rain 24hr
in
rain mn
in
humidity
%
barometer
mb
20260904023016 49 248 5.0 13.0 0.00 0.00 0.00 62 1005.0
20260904021521 49 273 4.0 10.0 0.00 0.00 0.00 60 1005.0
20260904020014 50 248 3.0 9.0 0.00 0.00 0.00 59 1005.0
20260904014513 51 246 4.0 14.0 0.00 0.00 0.00 58 1005.2
20260904013013 51 206 5.0 14.0 0.00 0.00 0.00 56 1005.6
20260904011512 52 253 6.0 20.0 0.00 0.00 0.00 53 1005.4
20260904010011 55 256 6.0 17.0 0.00 0.00 0.00 49 1005.1
20260904004508 56 263 4.0 15.0 0.00 0.00 0.00 48 1005.4
20260904003007 56 234 7.0 15.0 0.00 0.00 0.00 46 1005.7
20260904001507 57 244 5.0 13.0 0.00 0.00 0.00 43 1005.5
20260904000006 58 293 5.0 15.0 0.00 0.00 0.00 42 1005.6
20260903234506 58 252 4.0 19.0 0.00 0.00 0.00 42 1005.4
20260903233005 59 232 2.0 17.0 0.00 0.00 0.00 41 1005.5
20260903231505 60 264 4.0 14.0 0.00 0.00 0.00 40 1005.6
20260903230004 59 179 4.0 15.0 0.00 0.00 0.00 39 1006.1
20260903224501 59 22 4.0 14.0 0.00 0.00 0.00 38 1006.3
20260903223134 58 225 6.0 19.0 0.00 0.00 0.00 36 1006.7
20260903220057 60 256 9.0 22.0 0.00 0.00 0.00 32 1006.7
20260903214603 60 259 3.0 20.0 0.00 0.00 0.00 35 1007.0
20260903213107 60 255 7.0 18.0 0.00 0.00 0.00 31 1007.1
20260903210113 60 291 9.0 23.0 0.00 0.00 0.00 31 1007.5
20260903204551 61 221 4.0 18.0 0.00 0.00 0.00 32 1007.4
20260903203052 60 179 7.0 23.0 0.00 0.00 0.00 32 1007.5
20260903200046 60 294 3.0 20.0 0.00 0.00 0.00 32 1007.8
20260903194548 60 118 4.0 13.0 0.00 0.00 0.00 29 1008.1
20260903193045 60 310 6.0 20.0 0.00 0.00 0.00 29 1008.1
20260903190040 61 256 3.0 19.0 0.00 0.00 0.00 27 1008.6
20260903184549 60 268 3.0 12.0 0.00 0.00 0.00 28 1008.8
20260903183038 59 46 4.0 22.0 0.00 0.00 0.00 29 1008.6
20260903180038 56 296 7.0 20.0 0.00 0.00 0.00 27 1008.9
20260903174535 57 232 4.0 14.0 0.00 0.00 0.00 27 1008.9
20260903173035 57 215 3.0 13.0 0.00 0.00 0.00 30 1008.9
20260903170032 56 276 3.0 18.0 0.00 0.00 0.00 34 1009.0
20260903164530 56 279 4.0 14.0 0.00 0.00 0.00 33 1009.0
20260903163028 55 268 8.0 19.0 0.00 0.00 0.00 34 1009.1
20260903160034 53 302 5.0 15.0 0.00 0.00 0.00 35 1009.4
20260903154521 52 323 6.0 14.0 0.00 0.00 0.00 36 1009.6
20260903153018 51 277 7.0 20.0 0.00 0.00 0.00 36 1009.5
20260903150017 50 256 6.0 14.0 0.00 0.00 0.00 36 1009.6
20260903144532 49 304 8.0 17.0 0.00 0.00 0.00 37 1009.3
20260903143015 48 287 7.0 19.0 0.00 0.00 0.00 37 1009.0
20260903140014 0 0.0 0.0 0.00 0.00 0.00 1008.3
20260903134509 0 0.0 0.0 0.00 0.00 0.00 1008.2
20260903133013 0 0.0 0.0 0.00 0.00 0.00 1008.2
20260903130059 0 0.0 0.0 0.00 0.00 0.00 1008.6
20260903124555 0 0.0 0.0 0.00 0.00 0.00 1008.9
20260903123054 0 0.0 0.0 0.00 0.00 0.00 1009.2
20260903120046 47 292 7.0 17.0 0.00 0.00 0.00 26 1010.0
20260903114548 47 308 5.0 14.0 0.00 0.00 0.00 27 1010.0
20260903113047 48 256 3.0 12.0 0.00 0.00 0.00 25 1010.2
20260903110045 48 275 4.0 10.0 0.00 0.00 0.00 30 1010.3
20260903104553 47 296 6.0 17.0 0.00 0.00 0.00 33 1010.2
20260903103042 48 267 7.0 13.0 0.00 0.00 0.00 32 1010.3
20260903100044 48 284 3.0 13.0 0.00 0.00 0.00 33 1010.2
20260903094536 48 231 7.0 14.0 0.00 0.00 0.00 34 1010.0
20260903093036 48 171 3.0 16.0 0.00 0.00 0.00 36 1010.2
20260903090033 48 280 6.0 15.0 0.00 0.00 0.00 40 1011.0
20260903084531 48 261 7.0 17.0 0.00 0.00 0.00 41 1011.0
20260903083028 48 313 4.0 16.0 0.00 0.00 0.00 43 1010.9
20260903080023 50 188 2.0 10.0 0.00 0.00 0.00 38 1010.4
20260903074520 50 234 3.0 13.0 0.00 0.00 0.00 38 1010.5
20260903073024 48 271 8.0 18.0 0.00 0.00 0.00 41 1010.2
20260903070017 47 264 5.0 18.0 0.00 0.00 0.00 48 1010.8
20260903064516 47 275 7.0 23.0 0.00 0.00 0.00 50 1011.2
20260903063017 47 277 7.0 22.0 0.00 0.00 0.00 49 1011.5
20260903060018 47 246 9.0 20.0 0.00 0.00 0.00 52 1011.7
20260903054520 47 273 8.0 14.0 0.00 0.00 0.00 54 1011.9
20260903053017 47 287 4.0 15.0 0.00 0.00 0.00 54 1012.1
20260903050017 46 257 7.0 15.0 0.00 0.00 0.00 58 1012.2
20260903044512 46 267 5.0 15.0 0.00 0.00 0.00 59 1012.1
20260903043016 45 261 5.0 14.0 0.00 0.00 0.00 60 1012.1
20260903040015 45 259 7.0 14.0 0.00 0.00 0.00 62 1012.1
20260903034512 46 250 4.0 11.0 0.00 0.00 0.00 61 1012.1
20260903033011 46 289 3.0 12.0 0.00 0.00 0.00 59 1012.1
20260903030019 47 250 0.0 7.0 0.00 0.00 0.00 56 1012.0
20260903024511 47 219 3.0 9.0 0.00 0.00 0.00 54 1011.8